Powrót do katalogu

FENGYUN 1C DEB

AktywnyPO
NORAD 31987·DEBRIS·🇨🇳 China

Wystrzelony May 10, 1999 z Taiyuan Satellite Launch Center

Loading…

Następne Przeloty (najbliższe 24 godziny)

TLE

ŚwieżeSource: Space-Track

Epoka: Sep 14, 2026, 05:44 UTC

1 31987U 99025CPQ 26257.23945215  .00002017  00000-0  56312-3 0  9996
2 31987  99.0579 254.1691 0051762  59.5993 313.8429 14.46667830  3455

Śledź FENGYUN 1C DEB w czasie rzeczywistym z AllMySat

Download on the App Store